TimePST,TemperatureF,Dew PointF,Humidity,Sea Level PressureIn,VisibilityMPH,Wind Direction,Wind SpeedMPH,Gust SpeedMPH,PrecipitationIn,Events,Conditions,WindDirDegrees,DateUTC
12:53 AM,30.9,26.1,82,29.97,7.0,NE,4.6,-,N/A,,Mostly Cloudy,50,2012-11-10 08:53:00
1:53 AM,30.0,27.0,88,29.98,7.0,Calm,Calm,-,N/A,,Overcast,0,2012-11-10 09:53:00
2:53 AM,30.0,26.1,85,29.99,7.0,ENE,5.8,-,N/A,,Overcast,60,2012-11-10 10:53:00
3:53 AM,30.9,27.0,85,29.99,7.0,Calm,Calm,-,N/A,,Mostly Cloudy,0,2012-11-10 11:53:00
4:53 AM,28.9,26.1,89,30.01,7.0,ENE,5.8,-,N/A,,Overcast,60,2012-11-10 12:53:00
5:53 AM,30.9,27.0,85,30.02,7.0,ENE,5.8,-,N/A,,Overcast,70,2012-11-10 13:53:00
6:53 AM,30.0,25.0,82,30.03,7.0,East,3.5,-,N/A,,Clear,100,2012-11-10 14:53:00
7:53 AM,28.0,24.1,85,30.06,5.0,Calm,Calm,-,N/A,,Mostly Cloudy,0,2012-11-10 15:53:00
8:53 AM,35.1,28.9,78,30.07,6.0,East,4.6,-,N/A,,Haze,100,2012-11-10 16:53:00
9:53 AM,39.9,30.0,68,30.09,6.0,East,5.8,-,N/A,,Haze,100,2012-11-10 17:53:00
10:53 AM,41.0,30.9,67,30.11,6.0,East,3.5,-,N/A,,Haze,90,2012-11-10 18:53:00
11:53 AM,44.1,28.9,55,30.11,7.0,East,5.8,-,N/A,,Mostly Cloudy,80,2012-11-10 19:53:00
12:53 PM,46.9,28.0,48,30.10,7.0,Calm,Calm,-,N/A,,Clear,0,2012-11-10 20:53:00
1:53 PM,48.0,28.9,48,30.10,7.0,Calm,Calm,-,N/A,,Clear,0,2012-11-10 21:53:00
2:53 PM,46.9,21.9,37,30.12,6.0,SW,5.8,-,N/A,,Haze,230,2012-11-10 22:53:00
3:53 PM,45.0,25.0,46,30.12,6.0,SSW,3.5,-,N/A,,Haze,200,2012-11-10 23:53:00
4:53 PM,37.0,30.0,76,30.14,5.0,Calm,Calm,-,N/A,,Haze,0,2012-11-11 00:53:00
5:53 PM,34.0,28.0,79,30.15,7.0,Calm,Calm,-,N/A,,Partly Cloudy,0,2012-11-11 01:53:00
6:53 PM,35.1,28.0,76,30.16,7.0,East,5.8,-,N/A,,Partly Cloudy,80,2012-11-11 02:53:00
7:53 PM,33.8,28.4,81,30.15,7.0,East,6.9,-,N/A,,Clear,80,2012-11-11 03:53:00
8:53 PM,34.0,28.0,79,30.17,7.0,East,5.8,-,N/A,,Clear,90,2012-11-11 04:53:00
9:53 PM,34.0,28.9,82,30.17,7.0,East,4.6,-,N/A,,Clear,80,2012-11-11 05:53:00
10:53 PM,34.0,28.9,82,30.16,7.0,ENE,4.6,-,N/A,,Clear,70,2012-11-11 06:53:00
11:53 PM,34.0,28.9,82,30.17,7.0,ENE,6.9,-,N/A,,Clear,70,2012-11-11 07:53:00